Showing default

SKYNET 5C, 33055

Orbit data source: Space-Track

SKYNET 5C, 33055 is a payload satellite owned by Paradigm (UK) in GEO that was launched on Thu, 12 Jun 2008 UTC via an ARIANE 5ECA launch vehicle from the French Guiana (FRGUI). Payload-class satellites include a variety of spacecraft equipped with specific instruments for various scientific and technological missions. These include communications satellites like Starlink; space stations such as the ISS; scientific satellites like the Hubble; Earth observation satellites from companies like Planet Labs, Umbra, and HawkEye 360; GPS; miniature CubeSats for education and research; and military/defense satellites.

Not visible in the next 10 days
Identifier
33055, 2008-030A
Orbit
GEO
Country
Flag of UKUK
Related business
Manufacturer
EADS/Bremen
Mission
Operational Defense Communications
Bus & Motor
EUROSTAR 3000, R-4D-15-375
Mass
4,635 kg wet, 2,170 kg dry
Launch date (UTC)
2008-06-12 (17 years ago)
Launch vehicle
ARIANE 5ECA
Launch site
French Guiana (FRGUI)
Object type
Payload
Rocket body
Debris
Shape & HBR
Box + 2 Pan, 17.0 m
Radar Cross Section
41.425 m², Large (>1 m²)

Expand to show TLE details & history
Last TLE update: 11 hours ago

TLE from 11 hours ago
0 SKYNET 5C
1 33055U 08030A   25243.45017358 -.00000137  00000-0  00000-0 0  9998
2 33055   3.0394  80.4851 0003819  88.4005 315.2634  1.00272130 63053
Epoch: 2025-08-31T10:48Z
TLE epoch observation values (Epoch: 2025-08-31T10:48:14.997Z)
Latitude
2.09341°
Longitude
-17.86384°
Altitude
35,774.253 km
Speed
3.076 km/s
True Right ascension
08h 16m 16s
True Declination
2° 05' 29"
Sunlit
Object was in daylight at epoch
Visualization orbit readout
Latitude
Unknown
Longitude
Unknown
Altitude
Unknown
Speed
Unknown
Apparent Right ascension
Unknown
Apparent Declination
Unknown
Sunlit
N/A
Visualization observer readout
Local Sidereal Time
12:59:21
Azimuth
Unknown
Elevation
Unknown
Doppler factor
Unknown
Orbital elements
Apogee altitude
35,803.667 km
Perigee altitude
35,771.461 km
Semi-major axis
42,165.701 km
Eccentricity
0.00038
Inclination
3.0394°
RAAN
80.4851°
Arg. of periapsis
88.4005°
True anomaly
315.23259°
Mean anomaly
315.2634°
Eccentric anomaly
315.24799°
Mean motion
0.25067 °/min
Orbital period
1,436.15 mins
BSTAR
0
Loading maneuver chart data...
Computing Atmospheric mass density...
Loading historical data...
Loading historical data...
Loading historical data...
Loading historical data...
Loading historical data...
Loading historical data...
Loading historical data...

Documentation

Showing up to 5 results
|